Regional Weather Roundup
Issued by NWS

Home | Current Version | Previous Version | Graphics & Text | Print | Product List | Glossary On
Versions: 1 2 3 4 5 6 7 8 9 10 11 12 13 14 15 16 17 18 19 20 21 22 23 24 25 26 27 28 29 30 31 32 33 34 35 36 37 38 39 40 41 42 43 44 45 46 47 48 49 50
000
ASUS45 KBOU 282307
RWRCO

WEATHER ROUNDUP FOR COLORADO
NATIONAL WEATHER SERVICE DENVER/BOULDER CO
400 PM MST WED JAN 28 2015

NOTE: "FAIR" INDICATES FEW OR NO CLOUDS BELOW 12000 FEET WITH NO
SIGNIFICANT WEATHER AND/OR OBSTRUCTIONS TO VISIBILITY.

COZ001>005-013-030-031-290000-
...NORTHWEST COLORADO...

CITY           SKY/WX    TMP DP  RH WIND       PRES   REMARKS
CRAIG          CLOUDY    41  31  67 SE3       30.25R
HAYDEN         CLOUDY    39  28  65 CALM      30.26R
MEEKER         MOSUNNY   45  28  51 SE5       30.23S
MOUNT WERNER   NOT AVBL
STEAMBOAT SPGS CLOUDY    38  29  69 CALM      30.26R
WALDEN         CLOUDY    34  27  75 SW5       30.25R WCI  30
$$

COZ006>008-011-290000-
...WEST CENTRAL VALLEYS...

CITY           SKY/WX    TMP DP  RH WIND       PRES   REMARKS
GRAND JUNCTION MOSUNNY   52  31  44 N7        30.22S
MONTROSE       SUNNY     54  26  34 N7        30.23R
EAGLE          PTSUNNY   48  27  43 SW13      30.25R
RIFLE          PTSUNNY   53  26  35 SW6       30.22R
DELTA          MOSUNNY   58  27  29 SW6       30.21R
NUCLA          SUNNY     52  25  35 W5        30.27R
$$

COZ017>023-064>068-290000-
...SOUTHWEST COLORADO...

CITY           SKY/WX    TMP DP  RH WIND       PRES   REMARKS
DURANGO        MOSUNNY   49  26  41 W15       30.21S
CORTEZ         SUNNY     52  31  44 MISG      30.22S
PAGOSA SPRINGS MOSUNNY   48  25  40 SW5       30.24R
TELLURIDE      MOSUNNY   40  25  54 W12       30.29R
WOLF CREEK PAS NOT AVBL
$$

COZ009-010-012-014-032>034-037-058>063-290000-
...CENTRAL COLORADO...

CITY           SKY/WX    TMP DP  RH WIND       PRES   REMARKS
ASPEN          CLOUDY    40  25  55 CALM      30.24S
BUENA VISTA    MOSUNNY   46  16  29 NW14G22   30.19R
COPPER MTN     PTSUNNY   28  14  54 W24G38    30.29F WCI  14
BERTHOUD PASS  SNOW      18  12  79 NW25G35   30.26F VSB<1/4 WCI  -1
COTTONWOOD PAS MOSUNNY   41  12  30 W12G29    30.23R
GUNNISON       MOSUNNY   36  21  55 N7        30.27S
KREMMLING      CLOUDY    37  27  65 SE5       30.27R
LEADVILLE      CLOUDY    32  15  49 NW12      30.26R WCI  23
MONARCH PASS   MOSUNNY   25  18  74 W35       30.36S WCI   7
SALIDA         MOSUNNY   49  19  30 W12G18    30.24S
SUNLIGHT       PTSUNNY   32  27  80 CALM      30.33R
WILKERSON PASS SUNNY     32  14  47 W10G22    30.27R WCI  24
$$

COZ069>075-290000-
...SAN LUIS VALLEY/SANGRE DE CRISTO MOUNTAINS...

CITY           SKY/WX    TMP DP  RH WIND       PRES   REMARKS
ALAMOSA        MOSUNNY   47  23  38 NE8       30.19S
LA VETA PASS   NOT AVBL
SAGUACHE       MOSUNNY   41  23  48 NW13      30.21S
$$

COZ035-036-038>040-290000-
...NORTHERN COLORADO FRONT RANGE...

CITY           SKY/WX    TMP DP  RH WIND       PRES   REMARKS
DENVER INTL AP MOSUNNY   57  21  24 N15       30.08R
DMNS CITY PARK   N/A     58  17  20 NW10      30.08R
AURORA         MOSUNNY   57  18  21 N9        30.09R
FRONT RANGE AP MOSUNNY   57  25  28 N17       30.09R
ERIE MUNI ARPT SUNNY     59  17  19 N13       30.07R
BOULDER MUN AP SUNNY     59  19  21 NW10      30.06R
CENTENNIAL     MOSUNNY   55  18  23 NW12G20   30.09R
BROOMFIELD     MOSUNNY   59  18  20 N8        30.08R
FORT COLLINS   SUNNY     55  23  28 NW21G33   30.10R
LONGMONT       SUNNY     61  19  20 W14G21    30.08R
$$

COZ041-046-047-076>085-087-088-290000-
...PIKES PEAK/PALMER DIVIDE AND SOUTHERN FOOTHILLS...

CITY           SKY/WX    TMP DP  RH WIND       PRES   REMARKS
COLO. SPRINGS  MOSUNNY   57  16  20 NW12G26   30.09R
A. F. ACADEMY  SUNNY     54  15  21 NW12      30.09R
ELLICOTT       SUNNY    N/A N/A N/A N15       30.09R
FALCON         SUNNY     52  16  23 N14G22    30.12S
FORT CARSON    SUNNY     58  17  19 N22G29    30.06R
LIMON          SUNNY     56  21  25 N18       30.07R
MONUMENT HILL  SUNNY     48  19  32 N13       30.12R
TRINIDAD       CLOUDY    57  25  29 N17G25    30.07R
$$

COZ042>045-048>051-090-091-290000-
...NORTHEAST COLORADO...

CITY           SKY/WX    TMP DP  RH WIND       PRES   REMARKS
GREELEY ARPT   SUNNY     57  25  28 NW28G39   30.05R
AKRON          SUNNY     51  33  50 N32G41    30.07R
BURLINGTON     SUNNY     58  31  35 N24G35    30.03R
WRAY           PTCLDY    57  31  37 NW26G40   30.03R
STERLING       PTSUNNY   55  37  50 N25G36    30.07R
HOLYOKE        PTCLDY    59  34  38 NW22G33   30.02R
FORT MORGAN    PTSUNNY   51  32  49 N21       30.08R
$$

COZ086-089-092>099-290000-
...SOUTHEAST COLORADO...

CITY           SKY/WX    TMP DP  RH WIND       PRES   REMARKS
PUEBLO         SUNNY     63  17  17 NW12      30.02R
LA JUNTA       MOSUNNY   64  21  19 NW6       30.01R
LAMAR          MOSUNNY   66  24  20 N10       30.00R
SPRINGFIELD      N/A     62  21  20 NW10      30.03R
$$



USA.gov is the U.S. government's official web portal to all federal, state and local government web resources and services.